[[{"header":{"parameterUnit":"m.s-1","parameterCategory":1,"la1":30.2991,"la2":30.254,"lo1":-89.0895,"lo2":-89.0444,"dy":0.0017,"dx":0.0017,"nx":28,"ny":28,"refTime":"2024-05-26T03:00:00:Z","depth":0,"parameterNumber":2,"parameterNumberName":"U-component_of_WINDS"},"data":[0,0,0,0,0,0,0,0,0,0,0,0,0,0,0,0,0,0,0,0,0,0,0,0,0,0,0,0,0,0,0,0,0,0,0,0,0,0,0,0,0,0,0,0,0,0,0,0,0,0,0,0,0,0,0,0,0,0,2.7233,2.7233,0,2.7262,2.7263,2.7263,2.7225,2.7223,2.7222,2.722,2.725,2.7252,2.7254,0,0,0,0,0,0,0,0,0,0,0,0,0,2.714,2.7142,2.7233,2.7233,2.7233,2.7262,2.7263,2.7263,2.7225,2.7223,2.7221,2.722,2.7249,2.7251,2.7254,0,0,0,0,0,0,0,0,0,0,0,0,0,2.7176,2.7143,2.7233,2.7218,2.7217,2.7262,2.7263,2.7263,2.7225,2.7223,2.7221,2.7219,2.7248,2.7251,2.7254,2.7315,0,0,2.7264,2.7265,0,0,0,0,0,0,0,0,2.7174,2.718,2.722,2.7219,2.7218,2.7238,2.7241,2.728,2.7226,2.7222,2.722,2.7218,2.7247,2.725,2.726,2.7316,2.7318,2.7264,2.7266,2.7267,2.7268,0,0,0,0,0,0,0,2.7172,2.7178,2.7244,2.722,2.7219,2.7209,2.7212,2.7248,2.7246,2.7222,2.7219,2.7223,2.7246,2.7257,2.7261,2.7318,2.7264,2.7267,2.7268,2.727,2.7423,2.7425,0,0,0,0,0,0,2.7171,2.7176,2.7243,2.7245,2.719,2.7212,2.7215,2.7233,2.7245,2.7245,2.7225,2.7222,2.7253,2.7257,2.7262,2.7331,2.7267,2.727,2.7272,2.742,2.7423,2.7425,0,0,0,0,0,0,2.7169,2.7178,2.7242,2.721,2.7217,2.7216,2.7237,2.7235,2.7246,2.7248,2.7247,2.7237,2.7252,2.7257,2.7301,2.7332,2.7271,2.7274,2.7418,2.7421,2.7424,2.7473,0,0,0,0,0,0,2.7167,2.7177,2.7201,2.7211,2.7219,2.7282,2.7238,2.7237,2.7252,2.7247,2.7259,2.7259,2.725,2.7297,2.7305,2.7335,2.7277,2.7415,2.7419,2.7423,2.7468,2.7477,2.7485,0,0,0,0,0,2.7164,2.7214,2.7203,2.7211,2.7249,2.7284,2.7289,2.7279,2.7254,2.7277,2.7278,2.7258,2.7328,2.7302,2.731,2.7342,2.7413,2.7418,2.7423,2.7465,2.7476,2.7485,0,0,0,0,0,0,2.7208,2.7215,2.7202,2.7257,2.7271,2.7278,2.7307,2.7291,2.7311,2.7306,2.7293,2.7295,2.7342,2.7347,2.7318,2.74,2.7366,2.7373,2.7395,2.7405,2.7414,2.7411,2.7279,0,0,0,0,0,2.7224,2.7253,2.7257,2.7305,2.7312,2.7309,2.7324,2.7315,2.7327,2.7333,2.7337,2.735,2.7374,2.739,2.7413,2.7469,2.747,2.7495,2.7504,2.751,2.7516,2.7543,2.7554,2.7442,2.7442,2.7442,0,0,2.7258,2.7265,2.7284,2.7314,2.7323,2.7352,2.7314,2.7346,2.7367,2.7338,2.7379,2.7382,2.7396,2.7445,2.7468,2.7451,2.7547,2.7517,2.7522,2.7524,2.7549,2.756,2.7569,2.7445,2.7444,2.7444,0,0,2.7333,2.7343,2.7382,2.7392,2.7406,2.7403,2.7412,2.7422,2.7423,2.7464,2.7442,2.7466,2.7509,2.7519,2.7529,2.7606,2.7588,2.7614,2.7657,2.7684,2.7692,2.77,2.7725,2.7735,2.762,2.762,2.762,0,2.7373,2.7415,2.7405,2.7438,2.7451,2.7426,2.7465,2.7475,2.7495,2.7504,2.7485,2.7537,2.7545,2.7595,2.7613,2.7624,2.7633,2.7612,2.7692,2.77,2.7707,2.773,2.774,2.7623,2.7623,2.7623,2.7622,0,2.7462,2.7492,2.7522,2.7542,2.7559,2.7595,2.7588,2.7606,2.7596,2.7594,2.7635,2.7643,2.7666,2.7678,2.7668,2.7726,2.7715,2.7695,2.766,2.7721,2.7742,2.7752,2.7627,2.7626,2.7626,2.7625,0,0,2.7566,2.7578,2.7589,2.7597,2.761,2.7632,2.7667,2.7689,2.7703,2.7718,2.7745,2.7782,2.7762,2.7774,2.7765,2.7789,2.7846,2.7765,2.7765,2.7778,2.7908,2.7921,2.7932,2.7835,2.7837,2.7838,2.7906,0,2.7639,2.7698,2.7688,2.7745,2.7771,2.7747,2.7776,2.7787,2.7786,2.7808,2.7807,2.7832,2.7806,2.7812,2.7835,2.7835,2.7872,2.783,2.7858,2.7859,2.7853,2.7944,2.7959,2.8023,2.7915,2.7916,2.7917,0,2.7732,2.7749,2.7808,2.7815,2.7826,2.7853,2.7871,2.7892,2.7903,2.7901,2.7913,2.79,2.7932,2.7898,2.7942,2.7913,2.7924,2.7926,2.7928,2.7928,2.789,2.7945,2.8043,2.8052,2.7931,2.793,2.7929,0,2.7798,2.7837,2.7876,2.7884,2.7894,2.7912,2.7917,2.7926,2.7939,2.7955,2.7963,2.7983,2.7994,2.8009,2.8,2.7977,2.8044,2.801,2.8042,2.8042,2.8055,2.8054,2.8154,2.8067,2.8066,2.8066,2.8066,0,2.7879,2.7916,2.7906,2.793,2.7969,2.7958,2.7997,2.7999,2.8007,2.803,2.8011,2.8033,2.8021,2.8042,2.8036,2.8071,2.8077,2.8075,2.8072,2.8075,2.8075,2.808,2.8075,2.8069,2.8068,2.8068,2.8067,0,2.7959,2.7954,2.7995,2.8001,2.8003,2.8031,2.8035,2.8057,2.8055,2.8084,2.8091,2.8087,2.811,2.8104,2.813,2.8125,2.8169,2.8162,2.8165,2.8163,2.8193,2.8189,2.8298,2.8311,2.8218,2.8218,2.8219,0,2.801,2.8037,2.8045,2.8059,2.8065,2.8088,2.8101,2.8091,2.8105,2.8118,2.8138,2.816,2.8176,2.8215,2.8214,2.8233,2.8224,2.8261,2.8227,2.8228,2.8222,2.8219,2.8221,2.8267,2.8268,2.8269,2.827,0,2.81,2.8096,2.8115,2.8133,2.8149,2.8163,2.8176,2.8188,2.8178,2.8195,2.8218,2.8231,2.8256,2.8277,2.8294,2.8298,2.8282,2.8281,2.8289,2.8291,2.829,2.8288,2.8181,2.8278,2.8277,2.8277,2.8276,2.8276,2.8165,2.8187,2.8195,2.8217,2.8225,2.8236,2.8256,2.8256,2.8276,2.8295,2.8288,2.8314,2.8323,2.8344,2.835,2.8369,2.8355,2.8367,2.837,2.8372,2.8375,2.8289,2.8373,2.8373,2.8372,2.8372,2.8372,0,2.8251,2.8255,2.8276,2.8292,2.8309,2.8293,2.8305,2.832,2.8343,2.8353,2.8369,2.8395,2.8415,2.8415,2.8434,2.8449,2.8442,2.8454,2.8451,2.8452,2.8388,2.8378,2.8459,2.8459,2.8459,2.8459,2.8459,2.8459,2.8298,2.8334,2.833,2.8369,2.8372,2.8398,2.8406,2.8416,2.8423,2.8452,2.8468,2.8469,2.8474,2.8492,2.8509,2.8509,2.8515,2.853,2.8526,2.8466,2.8457,2.8449,2.8439,2.8532,2.8532,2.8589,2.8589,2.859]},{"header":{"parameterUnit":"m.s-1","parameterCategory":1,"la1":30.2991,"la2":30.254,"lo1":-89.0895,"lo2":-89.0444,"dy":0.0017,"dx":0.0017,"nx":28,"ny":28,"refTime":"2024-05-26T03:00:00:Z","depth":0,"parameterNumber":3,"parameterNumberName":"V-component_of_WINDS"},"data":[0,0,0,0,0,0,0,0,0,0,0,0,0,0,0,0,0,0,0,0,0,0,0,0,0,0,0,0,0,0,0,0,0,0,0,0,0,0,0,0,0,0,0,0,0,0,0,0,0,0,0,0,0,0,0,0,0,0,4.881,4.8811,0,4.8897,4.8898,4.8899,4.8876,4.8874,4.8872,4.8871,4.8953,4.8956,4.896,0,0,0,0,0,0,0,0,0,0,0,0,0,4.8617,4.8621,4.881,4.8811,4.8812,4.8897,4.8898,4.8899,4.8876,4.8874,4.8872,4.887,4.8951,4.8956,4.896,0,0,0,0,0,0,0,0,0,0,0,0,0,4.8702,4.8622,4.881,4.8811,4.8812,4.8896,4.8898,4.8899,4.8876,4.8874,4.8871,4.8869,4.895,4.8955,4.8961,4.9047,0,0,4.8978,4.8981,0,0,0,0,0,0,0,0,4.8697,4.8709,4.881,4.8811,4.8813,4.8873,4.886,4.8949,4.8877,4.8852,4.8871,4.8868,4.8928,4.8935,4.8957,4.9051,4.9055,4.8979,4.8982,4.8985,4.8986,0,0,0,0,0,0,0,4.8691,4.8705,4.8844,4.8811,4.8813,4.8805,4.8814,4.8876,4.8903,4.8854,4.8852,4.8863,4.8928,4.8951,4.8958,4.9056,4.8979,4.8984,4.8987,4.8989,4.9223,4.9225,0,0,0,0,0,0,4.8685,4.87,4.8841,4.8847,4.8748,4.881,4.8821,4.8856,4.8902,4.8907,4.8865,4.8862,4.8943,4.8952,4.8961,4.9064,4.8985,4.899,4.8993,4.922,4.9223,4.9226,0,0,0,0,0,0,4.8681,4.8698,4.8838,4.8773,4.879,4.8817,4.8856,4.8859,4.8883,4.8911,4.8915,4.8885,4.8941,4.8953,4.9026,4.9067,4.8992,4.8998,4.9216,4.9221,4.9225,4.9271,0,0,0,0,0,0,4.8676,4.8697,4.8732,4.8774,4.8794,4.8904,4.8859,4.8863,4.8893,4.8889,4.893,4.8935,4.894,4.9018,4.9032,4.9073,4.9002,4.9213,4.9218,4.9223,4.9266,4.9276,4.9285,0,0,0,0,0,4.8669,4.8741,4.8734,4.8751,4.8839,4.8906,4.8917,4.8924,4.8897,4.8931,4.8948,4.8933,4.906,4.9025,4.9041,4.9084,4.921,4.9217,4.9223,4.9262,4.9274,4.9285,0,0,0,0,0,0,4.87,4.8746,4.8739,4.8827,4.8863,4.8902,4.8946,4.8937,4.898,4.8975,4.8979,4.8988,4.9062,4.9081,4.9041,4.9169,4.9131,4.914,4.9155,4.9167,4.9176,4.917,4.9007,0,0,0,0,0,4.8718,4.8771,4.8807,4.8881,4.89,4.892,4.8949,4.8951,4.8988,4.9002,4.9026,4.906,4.9107,4.9138,4.9183,4.9268,4.9276,4.9306,4.9315,4.9323,4.9331,4.9375,4.9389,4.9247,4.9247,4.9247,0,0,4.8753,4.8785,4.8818,4.8888,4.8916,4.8969,4.8933,4.899,4.9028,4.901,4.9081,4.9099,4.9137,4.9216,4.9252,4.9233,4.9372,4.9331,4.9337,4.9341,4.9383,4.9397,4.9409,4.9251,4.925,4.925,0,0,4.8846,4.8876,4.894,4.8969,4.9013,4.9026,4.9041,4.9082,4.9093,4.9165,4.9152,4.9196,4.9278,4.9305,4.933,4.9431,4.9417,4.9445,4.9495,4.9538,4.9549,4.9559,4.9593,4.9606,4.9453,4.9453,4.9453,0,4.8884,4.8966,4.8974,4.9033,4.9062,4.905,4.9114,4.9141,4.9196,4.9216,4.9195,4.9296,4.9321,4.9406,4.943,4.9451,4.9466,4.944,4.9547,4.9557,4.9566,4.9599,4.9613,4.9456,4.9456,4.9455,4.9455,0,4.901,4.9066,4.9112,4.9168,4.9203,4.9264,4.9279,4.9313,4.9311,4.9325,4.9396,4.9425,4.9475,4.9496,4.9494,4.9579,4.9566,4.9546,4.9508,4.9583,4.9614,4.9627,4.946,4.9459,4.9458,4.9458,0,0,4.9125,4.9184,4.9201,4.9225,4.9272,4.9315,4.9373,4.9424,4.9453,4.949,4.9538,4.9607,4.9589,4.9617,4.9618,4.9656,4.9732,4.9631,4.9632,4.9648,4.9825,4.984,4.9854,4.9724,4.9726,4.9728,4.9822,0,4.922,4.9327,4.9335,4.943,4.9481,4.9469,4.952,4.9553,4.9567,4.961,4.9624,4.9673,4.9645,4.9662,4.9699,4.9715,4.9767,4.9708,4.9766,4.9768,4.9757,4.9871,4.9887,4.9974,4.9834,4.9836,4.9838,0,4.9347,4.939,4.9491,4.953,4.9551,4.9597,4.9644,4.9686,4.9721,4.9728,4.9759,4.9755,4.9812,4.9772,4.9849,4.9809,4.9833,4.9844,4.9847,4.9852,4.9807,4.9878,5.0002,5.0015,4.9857,4.9855,4.9854,0,4.9419,4.9503,4.9574,4.9595,4.9642,4.9674,4.9695,4.9728,4.9758,4.9797,4.9816,4.9861,4.9885,4.9919,4.9925,4.9896,5.0003,4.9963,5.0008,5.0008,5.0031,5.0029,5.016,5.0048,5.0047,5.0047,5.0047,0,4.9525,4.9586,4.9607,4.965,4.9718,4.9725,4.9791,4.9809,4.9838,4.9883,4.9875,4.9916,4.9923,4.9965,4.997,5.0033,5.0044,5.0049,5.005,5.005,5.0049,5.0065,5.0059,5.0051,5.005,5.0049,5.0049,0,4.9617,4.9634,4.971,4.9748,4.9759,4.9807,4.9838,4.9878,4.9891,4.9948,4.9961,4.998,5.0029,5.004,5.0097,5.01,5.0174,5.0169,5.0163,5.0162,5.0207,5.0202,5.0351,5.037,5.0246,5.0248,5.0249,0,4.9683,4.9731,4.9775,4.9805,4.9828,4.9876,4.9907,4.9915,4.9946,4.999,5.0024,5.0072,5.0112,5.019,5.0207,5.0251,5.0246,5.0295,5.0252,5.025,5.0245,5.0242,5.0246,5.0303,5.0304,5.0306,5.0306,0,4.9799,4.9804,4.985,4.9898,4.9935,4.9973,5.0009,5.0033,5.0046,5.0081,5.0132,5.0163,5.0222,5.0269,5.0312,5.033,5.032,5.032,5.0332,5.0333,5.0327,5.0329,5.0185,5.0316,5.0315,5.0315,5.0314,5.0314,4.9879,4.992,4.9958,5.0008,5.0036,5.007,5.0109,5.0127,5.0171,5.0221,5.0222,5.0277,5.0309,5.0366,5.0387,5.0428,5.0413,5.0431,5.0436,5.044,5.0443,5.0321,5.0436,5.0436,5.0436,5.0435,5.0435,0,4.9993,5.0017,5.0063,5.0114,5.0153,5.0142,5.0181,5.0213,5.0263,5.0295,5.0334,5.0391,5.0437,5.0458,5.0502,5.0531,5.0527,5.0542,5.054,5.0543,5.0456,5.044,5.0544,5.0544,5.0544,5.0544,5.0544,5.0544,5.0057,5.0126,5.0136,5.0217,5.0239,5.0295,5.0317,5.0347,5.0372,5.0438,5.0477,5.0491,5.0517,5.0563,5.0603,5.0608,5.0624,5.0641,5.0644,5.0561,5.055,5.0539,5.0525,5.0645,5.0645,5.0728,5.0729,5.0729]}]]